CW2285 Weather Reports


Display with metric or nautical units.
time (UTC)temp
F
wind
direction
speed
MPH
gust
MPH
rain 1hr
in
rain 24hr
in
rain mn
in
humidity
%
barometer
mb
20260508191502 99 185 3.0 7.0 0.00 0.00 0.00 16 1007.5
20260508191002 98 262 2.0 6.0 0.00 0.00 0.00 18 1007.5
20260508190503 98 220 1.0 8.0 0.00 0.00 0.00 17 1007.6
20260508190002 98 197 3.0 6.0 0.00 0.00 0.00 17 1007.7
20260508185502 97 239 1.0 7.0 0.00 0.00 0.00 16 1007.8
20260508185003 98 207 6.0 8.0 0.00 0.00 0.00 16 1007.9
20260508184502 97 247 3.0 6.0 0.00 0.00 0.00 17 1007.9
20260508184003 97 186 5.0 8.0 0.00 0.00 0.00 19 1007.9
20260508183502 97 285 3.0 7.0 0.00 0.00 0.00 18 1008.0
20260508183003 96 249 3.0 6.0 0.00 0.00 0.00 19 1008.1
20260508182502 96 285 1.0 6.0 0.00 0.00 0.00 20 1008.1
20260508182003 95 308 2.0 5.0 0.00 0.00 0.00 21 1008.1
20260508181502 95 221 1.0 6.0 0.00 0.00 0.00 18 1008.2
20260508181003 95 240 2.0 5.0 0.00 0.00 0.00 20 1008.1
20260508180502 94 319 1.0 5.0 0.00 0.00 0.00 19 1008.2
20260508180003 94 278 3.0 6.0 0.00 0.00 0.00 21 1008.2
20260508174502 94 228 3.0 7.0 0.00 0.00 0.00 21 1008.3
20260508174002 93 225 2.0 6.0 0.00 0.00 0.00 22 1008.3
20260508173502 92 215 2.0 5.0 0.00 0.00 0.00 22 1008.3
20260508173003 92 269 5.0 9.0 0.00 0.00 0.00 22 1008.3
20260508172502 92 258 3.0 7.0 0.00 0.00 0.00 23 1008.2
20260508172002 91 215 5.0 7.0 0.00 0.00 0.00 24 1008.3
20260508171502 91 198 6.0 8.0 0.00 0.00 0.00 25 1008.3
20260508170502 91 216 6.0 8.0 0.00 0.00 0.00 26 1008.3
20260508165502 91 267 6.0 10.0 0.00 0.00 0.00 26 1008.3
20260508165002 91 233 6.0 10.0 0.00 0.00 0.00 26 1008.3
20260508164502 90 302 7.0 14.0 0.00 0.00 0.00 26 1008.4
20260508164002 90 301 7.0 16.0 0.00 0.00 0.00 28 1008.4
20260508163002 90 288 8.0 13.0 0.00 0.00 0.00 27 1008.4
20260508161503 88 283 9.0 16.0 0.00 0.00 0.00 29 1008.4
20260508161003 87 293 12.0 21.0 0.00 0.00 0.00 29 1008.4
20260508160502 87 285 7.0 16.0 0.00 0.00 0.00 30 1008.4
20260508155502 86 283 9.0 17.0 0.00 0.00 0.00 31 1008.3
20260508155002 86 290 9.0 20.0 0.00 0.00 0.00 31 1008.4
20260508154503 86 290 10.0 16.0 0.00 0.00 0.00 31 1008.4
20260508154002 85 304 9.0 15.0 0.00 0.00 0.00 32 1008.4
20260508153503 85 298 8.0 17.0 0.00 0.00 0.00 32 1008.4
20260508152502 84 287 12.0 18.0 0.00 0.00 0.00 33 1008.4
20260508152002 84 278 12.0 20.0 0.00 0.00 0.00 33 1008.4
20260508151502 83 301 13.0 20.0 0.00 0.00 0.00 33 1008.4
20260508151002 83 282 12.0 25.0 0.00 0.00 0.00 34 1008.4
20260508145503 82 289 10.0 20.0 0.00 0.00 0.00 35 1008.4
20260508145003 82 288 14.0 21.0 0.00 0.00 0.00 35 1008.4
20260508144502 81 288 11.0 22.0 0.00 0.00 0.00 37 1008.4
20260508144003 81 282 14.0 23.0 0.00 0.00 0.00 36 1008.5
20260508143002 80 298 12.0 20.0 0.00 0.00 0.00 37 1008.5
20260508142502 80 277 16.0 26.0 0.00 0.00 0.00 37 1008.5
20260508142002 80 282 12.0 25.0 0.00 0.00 0.00 39 1008.5
20260508141003 79 285 11.0 23.0 0.00 0.00 0.00 39 1008.5
20260508140503 79 280 11.0 22.0 0.00 0.00 0.00 39 1008.3
20260508135503 78 288 12.0 20.0 0.00 0.00 0.00 40 1008.1
20260508135002 78 284 14.0 21.0 0.00 0.00 0.00 40 1008.0
20260508134503 78 275 10.0 21.0 0.00 0.00 0.00 40 1008.0
20260508134003 78 302 13.0 20.0 0.00 0.00 0.00 41 1008.0
20260508133503 78 280 11.0 22.0 0.00 0.00 0.00 41 1008.0
20260508133003 77 282 14.0 26.0 0.00 0.00 0.00 42 1008.0
20260508132503 77 279 14.0 22.0 0.00 0.00 0.00 41 1007.9
20260508132003 77 277 12.0 20.0 0.00 0.00 0.00 42 1007.8
20260508131502 77 290 10.0 18.0 0.00 0.00 0.00 42 1007.7
20260508131003 77 282 10.0 20.0 0.00 0.00 0.00 42 1007.7
20260508130502 77 293 12.0 26.0 0.00 0.00 0.00 43 1007.6
20260508130002 77 281 10.0 20.0 0.00 0.00 0.00 42 1007.5
20260508125503 77 282 11.0 23.0 0.00 0.00 0.00 42 1007.5
20260508125002 77 298 12.0 22.0 0.00 0.00 0.00 42 1007.4
20260508124502 78 299 12.0 18.0 0.00 0.00 0.00 42 1007.4
20260508124002 78 290 11.0 20.0 0.00 0.00 0.00 41 1007.3
20260508123502 78 282 9.0 18.0 0.00 0.00 0.00 41 1007.4
20260508123002 78 282 12.0 20.0 0.00 0.00 0.00 41 1007.4
20260508122502 78 285 12.0 22.0 0.00 0.00 0.00 41 1007.4
20260508122003 78 297 12.0 22.0 0.00 0.00 0.00 41 1007.2
20260508121502 78 282 10.0 21.0 0.00 0.00 0.00 41 1007.2
20260508121003 78 276 12.0 24.0 0.00 0.00 0.00 41 1007.2
20260508120502 78 283 14.0 21.0 0.00 0.00 0.00 41 1007.1
20260508120003 78 288 13.0 23.0 0.00 0.00 0.00 41 1007.1
20260508115502 78 283 13.0 22.0 0.00 0.00 0.00 40 1007.0
20260508114003 77 291 13.0 22.0 0.00 0.00 0.00 42 1006.9
20260508113503 77 300 11.0 20.0 0.00 0.00 0.00 42 1007.0
20260508112503 77 298 13.0 22.0 0.00 0.00 0.00 42 1006.9
20260508112003 78 294 13.0 21.0 0.00 0.00 0.00 43 1006.9
20260508111503 78 291 12.0 21.0 0.00 0.00 0.00 42 1006.9
20260508111003 78 302 13.0 23.0 0.00 0.00 0.00 41 1006.9
20260508110502 78 298 12.0 21.0 0.00 0.00 0.00 42 1006.9
20260508110002 78 295 12.0 23.0 0.00 0.00 0.00 42 1006.9
20260508105002 78 286 13.0 22.0 0.00 0.00 0.00 40 1007.0
20260508103503 78 287 13.0 24.0 0.00 0.00 0.00 40 1006.9
20260508102002 78 287 14.0 25.0 0.00 0.00 0.00 40 1007.0
20260508101003 78 298 14.0 20.0 0.00 0.00 0.00 41 1007.2
20260508100503 78 297 15.0 25.0 0.00 0.00 0.00 40 1007.1
20260508100003 78 292 13.0 22.0 0.00 0.00 0.00 41 1007.2
20260508095502 78 298 13.0 20.0 0.00 0.00 0.00 40 1007.2
20260508095002 78 296 13.0 21.0 0.00 0.00 0.00 40 1007.2
20260508094503 78 292 12.0 23.0 0.00 0.00 0.00 41 1007.1
20260508094003 78 296 13.0 25.0 0.00 0.00 0.00 41 1007.1
20260508093503 78 304 12.0 23.0 0.00 0.00 0.00 41 1007.1
20260508092502 78 283 14.0 31.0 0.00 0.00 0.00 41 1007.1
20260508092003 78 285 14.0 21.0 0.00 0.00 0.00 42 1007.2
20260508091002 78 288 16.0 26.0 0.00 0.00 0.00 43 1007.2
20260508090003 78 289 15.0 24.0 0.00 0.00 0.00 42 1007.2
20260508085002 78 303 15.0 26.0 0.00 0.00 0.00 42 1007.2
20260508084003 78 296 14.0 28.0 0.00 0.00 0.00 42 1007.5
20260508083502 78 290 11.0 25.0 0.00 0.00 0.00 43 1007.5
20260508083002 78 292 12.0 21.0 0.00 0.00 0.00 43 1007.4
20260508082503 78 296 14.0 25.0 0.00 0.00 0.00 43 1007.5
20260508082003 78 304 12.0 22.0 0.00 0.00 0.00 43 1007.5
20260508081503 78 308 16.0 26.0 0.00 0.00 0.00 43 1007.5
20260508081003 78 294 12.0 23.0 0.00 0.00 0.00 43 1007.5
20260508080502 78 297 13.0 25.0 0.00 0.00 0.00 43 1007.5
20260508080003 79 308 16.0 28.0 0.00 0.00 0.00 42 1007.5
20260508075502 79 285 17.0 26.0 0.00 0.00 0.00 41 1007.5
20260508075003 79 286 15.0 26.0 0.00 0.00 0.00 42 1007.5
20260508074503 79 296 14.0 25.0 0.00 0.00 0.00 42 1007.8
20260508073503 79 275 13.0 23.0 0.00 0.00 0.00 41 1008.0
20260508073003 79 295 13.0 22.0 0.00 0.00 0.00 40 1007.9
20260508072503 80 286 15.0 23.0 0.00 0.00 0.00 39 1008.0
20260508072002 80 283 15.0 26.0 0.00 0.00 0.00 40 1007.9
20260508071002 80 280 12.0 22.0 0.00 0.00 0.00 39 1008.0
20260508070002 80 293 12.0 22.0 0.00 0.00 0.00 39 1007.9
20260508065503 80 296 12.0 23.0 0.00 0.00 0.00 38 1007.8
20260508065002 80 296 9.0 17.0 0.00 0.00 0.00 38 1007.7
20260508064502 81 279 12.0 17.0 0.00 0.00 0.00 38 1007.7
20260508064002 81 300 9.0 18.0 0.00 0.00 0.00 37 1007.7
20260508063502 81 291 10.0 20.0 0.00 0.00 0.00 37 1007.6
20260508063003 81 306 10.0 20.0 0.00 0.00 0.00 37 1007.5
20260508062504 81 300 9.0 16.0 0.00 0.00 0.00 36 1007.6
20260508062002 81 294 9.0 22.0 0.00 0.00 0.00 36 1007.5
20260508060502 82 290 10.0 23.0 0.00 0.00 0.00 35 1007.5
20260508060002 82 299 9.0 22.0 0.00 0.00 0.00 34 1007.5
20260508055503 82 306 12.0 23.0 0.00 0.00 0.00 34 1007.5
20260508055003 82 295 12.0 21.0 0.00 0.00 0.00 35 1007.5
20260508054502 83 300 10.0 21.0 0.00 0.00 0.00 34 1007.6
20260508054002 83 289 12.0 23.0 0.00 0.00 0.00 34 1007.5
20260508053503 83 301 12.0 24.0 0.00 0.00 0.00 34 1007.5
20260508053003 83 296 8.0 17.0 0.00 0.00 0.00 34 1007.5
20260508052002 83 313 9.0 21.0 0.00 0.00 0.00 33 1007.4
20260508051503 84 300 12.0 20.0 0.00 0.00 0.00 33 1007.4
20260508051002 84 306 10.0 23.0 0.00 0.00 0.00 32 1007.4
20260508050503 84 294 10.0 20.0 0.00 0.00 0.00 32 1007.4
20260508050003 84 297 12.0 20.0 0.00 0.00 0.00 32 1007.4
20260508045503 85 298 9.0 18.0 0.00 0.00 0.00 31 1007.4
20260508045002 85 284 9.0 20.0 0.00 0.00 0.00 31 1007.4
20260508044002 85 296 7.0 18.0 0.00 0.00 0.00 29 1007.4
20260508043502 85 295 8.0 14.0 0.00 0.00 0.00 29 1007.4
20260508043002 85 306 10.0 16.0 0.00 0.00 0.00 29 1007.4
20260508042503 85 297 7.0 18.0 0.00 0.00 0.00 28 1007.2
20260508042004 86 311 7.0 17.0 0.00 0.00 0.00 28 1007.0
20260508041503 86 306 7.0 14.0 0.00 0.00 0.00 28 1007.0
20260508041003 86 310 8.0 16.0 0.00 0.00 0.00 28 1006.9
20260508040502 86 300 9.0 14.0 0.00 0.00 0.00 27 1006.9
20260508040002 87 310 5.0 12.0 0.00 0.00 0.00 27 1006.9
20260508035003 88 312 8.0 16.0 0.00 0.00 0.00 23 1006.7
20260508034502 88 288 8.0 18.0 0.00 0.00 0.00 23 1006.6
20260508034003 89 294 9.0 17.0 0.00 0.00 0.00 22 1006.5
20260508033502 89 302 11.0 18.0 0.00 0.00 0.00 20 1006.4
20260508033003 89 300 7.0 21.0 0.00 0.00 0.00 20 1006.4
20260508032003 90 284 12.0 22.0 0.00 0.00 0.00 17 1006.4
20260508031503 90 291 11.0 22.0 0.00 0.00 0.00 17 1006.2
20260508031002 90 291 13.0 23.0 0.00 0.00 0.00 17 1006.2
20260508030503 91 308 12.0 20.0 0.00 0.00 0.00 16 1006.2
20260508030003 91 302 8.0 21.0 0.00 0.00 0.00 15 1006.2
20260508025502 91 293 12.0 25.0 0.00 0.00 0.00 15 1006.1
20260508025003 91 300 11.0 20.0 0.00 0.00 0.00 15 1006.2
20260508024503 92 304 11.0 24.0 0.00 0.00 0.00 16 1006.1
20260508024003 92 293 14.0 23.0 0.00 0.00 0.00 15 1006.1
20260508023003 92 294 12.0 24.0 0.00 0.00 0.00 15 1006.2
20260508022003 92 290 12.0 20.0 0.00 0.00 0.00 17 1006.0
20260508021502 93 296 13.0 22.0 0.00 0.00 0.00 17 1006.0
20260508021003 93 295 15.0 25.0 0.00 0.00 0.00 18 1005.9
20260508020003 94 292 10.0 22.0 0.00 0.00 0.00 17 1005.9
20260508015502 94 285 13.0 23.0 0.00 0.00 0.00 18 1005.9
20260508014502 94 311 15.0 24.0 0.00 0.00 0.00 17 1005.9
20260508014003 95 279 13.0 23.0 0.00 0.00 0.00 18 1005.9
20260508013502 95 279 13.0 22.0 0.00 0.00 0.00 18 1005.8
20260508013003 95 291 12.0 22.0 0.00 0.00 0.00 18 1005.8
20260508012503 95 292 13.0 20.0 0.00 0.00 0.00 18 1005.8
20260508012002 96 287 14.0 22.0 0.00 0.00 0.00 18 1005.8
20260508011503 96 289 12.0 20.0 0.00 0.00 0.00 18 1005.7
20260508011003 96 284 14.0 22.0 0.00 0.00 0.00 18 1005.6
20260508010003 97 296 15.0 23.0 0.00 0.00 0.00 17 1005.6
20260508004502 98 288 13.0 23.0 0.00 0.00 0.00 17 1005.5
20260508004003 98 288 10.0 20.0 0.00 0.00 0.00 17 1005.4
20260508003503 98 297 9.0 23.0 0.00 0.00 0.00 17 1005.4
20260508002503 99 291 10.0 20.0 0.00 0.00 0.00 16 1005.4
20260508002002 99 298 8.0 18.0 0.00 0.00 0.00 16 1005.4
20260508001503 99 288 8.0 21.0 0.00 0.00 0.00 15 1005.5
20260508001002 99 307 9.0 20.0 0.00 0.00 0.00 16 1005.5
20260508000503 100 299 13.0 20.0 0.00 0.00 0.00 16 1005.4
20260507235503 100 312 7.0 15.0 0.00 0.00 0.00 15 1005.6
20260507235003 100 282 9.0 17.0 0.00 0.00 0.00 15 1005.5
20260507234502 100 288 8.0 23.0 0.00 0.00 0.00 15 1005.5
20260507234003 100 283 7.0 13.0 0.00 0.00 0.00 15 1005.5
20260507233503 100 310 8.0 18.0 0.00 0.00 0.00 15 1005.6
20260507233003 101 262 5.0 18.0 0.00 0.00 0.00 15 1005.7
20260507232503 100 282 7.0 12.0 0.00 0.00 0.00 15 1005.7
20260507232002 101 310 8.0 15.0 0.00 0.00 0.00 15 1005.7
20260507231002 101 303 9.0 21.0 0.00 0.00 0.00 15 1005.7
20260507230003 101 313 3.0 10.0 0.00 0.00 0.00 14 1005.8
20260507224003 100 244 3.0 7.0 0.00 0.00 0.00 11 1006.0
20260507223503 101 193 3.0 7.0 0.00 0.00 0.00 11 1006.1
20260507223003 100 99 3.0 7.0 0.00 0.00 0.00 12 1006.1
20260507222003 101 177 3.0 6.0 0.00 0.00 0.00 11 1006.3
20260507221503 101 245 3.0 7.0 0.00 0.00 0.00 12 1006.3
20260507221003 101 306 2.0 5.0 0.00 0.00 0.00 14 1006.4
20260507220503 100 338 2.0 5.0 0.00 0.00 0.00 12 1006.5
20260507220003 100 124 0.0 2.0 0.00 0.00 0.00 10 1006.7
20260507215503 101 72 3.0 7.0 0.00 0.00 0.00 12 1006.8
20260507214503 101 330 3.0 8.0 0.00 0.00 0.00 13 1007.0
20260507214003 100 297 3.0 6.0 0.00 0.00 0.00 14 1007.1
20260507213502 100 340 4.0 8.0 0.00 0.00 0.00 14 1007.2
20260507213002 99 242 1.0 7.0 0.00 0.00 0.00 11 1007.4
20260507212503 99 198 1.0 6.0 0.00 0.00 0.00 13 1007.5
20260507212002 99 280 2.0 7.0 0.00 0.00 0.00 13 1007.5
20260507211503 99 19 2.0 8.0 0.00 0.00 0.00 11 1007.5
20260507211003 100 209 6.0 12.0 0.00 0.00 0.00 11 1007.6
20260507210502 99 221 5.0 9.0 0.00 0.00 0.00 11 1007.6
20260507210002 99 171 3.0 8.0 0.00 0.00 0.00 12 1007.8
20260507205503 100 147 3.0 8.0 0.00 0.00 0.00 12 1007.9
20260507205003 99 180 2.0 8.0 0.00 0.00 0.00 12 1008.0
20260507203502 98 182 3.0 7.0 0.00 0.00 0.00 12 1008.0
20260507203003 98 122 5.0 9.0 0.00 0.00 0.00 14 1008.1
20260507202502 99 122 5.0 9.0 0.00 0.00 0.00 15 1008.1
20260507202002 97 93 5.0 9.0 0.00 0.00 0.00 16 1008.2
20260507201502 98 161 5.0 10.0 0.00 0.00 0.00 15 1008.3
20260507201002 98 92 6.0 12.0 0.00 0.00 0.00 18 1008.5
20260507200503 97 104 7.0 12.0 0.00 0.00 0.00 18 1008.6
20260507200003 96 110 5.0 10.0 0.00 0.00 0.00 19 1008.6
20260507195002 97 92 5.0 10.0 0.00 0.00 0.00 18 1008.9
20260507194503 96 120 8.0 12.0 0.00 0.00 0.00 19 1009.0
20260507194003 95 111 5.0 8.0 0.00 0.00 0.00 18 1009.1
20260507193503 96 122 5.0 12.0 0.00 0.00 0.00 19 1009.1
20260507193003 95 99 6.0 12.0 0.00 0.00 0.00 20 1009.2
20260507192502 94 122 4.0 8.0 0.00 0.00 0.00 19 1009.3